Easton, MD

10:03 PM EST on November 16, 2019 (GMT -0500)
Easton / Newnam

Weather History for KESN - October, 2019

Change the Weather History Date:

Tuesday, October 22, 2019

  Actual Average Record
Temperature  
Mean Temperature 64 °F -  
Max Temperature 69 °F 68 °F 80 °F (1975)
Min Temperature 59 °F 42 °F 27 °F (1974)
Degree Days  
Heating Degree Days 1    
Growing Degree Days 14 (Base 50)    
Moisture  
Dew Point 60 °F    
Average Humidity 95    
Maximum Humidity 100    
Minimum Humidity 83    
Precipitation  
Precipitation 0.01 in - - ()
Sea Level Pressure  
Sea Level Pressure 30.00 in    
Wind  
Wind Speed 3 mph (SE)    
Max Wind Speed 13 mph    
Max Gust Speed 16 mph    
Visibility 6 miles    
Events Rain    
Averages and records for this station are not official NWS values.
T = Trace of Precipitation, MM = Missing Value Source: NWS Daily Summary

Daily Weather History Graph

Daily Weather History Graph

Search for Another Location

Airport or City:

Astronomy

Oct. 22, 2019 Rise Set
Actual Time 7:20 AM EDT 6:16 PM EDT
Civil Twilight 6:53 AM EDT 6:43 PM EDT
Nautical Twilight 6:22 AM EDT 7:14 PM EDT
Astronomical Twilight 5:51 AM EDT 7:45 PM EDT
Moon 12:32 AM EDT (10/22) 3:19 PM EDT (10/22)
Length of Visible Light 11h 50m
Length of Day
10h 56m
Last Quarter, 37% of the Moon is Illuminated
Oct 22
Last Quarter
Oct 27
New
Nov 4
First Quarter
Nov 12
Full
Nov 19
Last Quarter

Hourly Weather History & Observations

Time (EDT) Temp. Dew Point Humidity Pressure Visibility Wind Dir Wind Speed Gust Speed Precip Events Conditions
12:19 AM 59.0 °F 56.5 °F 91% 30.12 in 10.0 mi Calm Calm - N/A   Mostly Cloudy
12:39 AM 59.2 °F 56.8 °F 92% 30.12 in 10.0 mi SE 3.5 mph - N/A   Mostly Cloudy
12:59 AM 59.0 °F 57.2 °F 94% 30.11 in 5.0 mi ESE 3.5 mph - N/A   Mostly Cloudy
1:19 AM 59.0 °F 57.6 °F 95% 30.11 in 7.0 mi Calm Calm - N/A   Overcast
1:39 AM 59.2 °F 58.1 °F 96% 30.13 in 4.0 mi Calm Calm - N/A   Overcast
1:59 AM 59.0 °F 58.1 °F 97% 30.12 in 3.0 mi Calm Calm - N/A   Overcast
2:19 AM 59.2 °F 58.1 °F 96% 30.12 in 2.0 mi Calm Calm - 0.01 in Rain Light Rain
2:39 AM 59.2 °F 58.1 °F 96% 30.11 in 2.5 mi Calm Calm - 0.01 in   Light Drizzle
2:59 AM 59.2 °F 58.1 °F 96% 30.11 in 4.0 mi Calm Calm - 0.01 in   Overcast
3:19 AM 59.2 °F 58.1 °F 96% 30.10 in 4.0 mi Calm Calm - N/A   Overcast
3:39 AM 59.0 °F 58.1 °F 97% 30.09 in 3.0 mi Calm Calm - N/A   Overcast
3:59 AM 59.0 °F 58.1 °F 97% 30.09 in 5.0 mi Calm Calm - N/A   Overcast
4:19 AM 59.0 °F 58.1 °F 97% 30.08 in 3.0 mi Calm Calm - N/A   Overcast
4:39 AM 59.0 °F 58.1 °F 97% 30.08 in 4.0 mi Calm Calm - N/A   Overcast
4:59 AM 59.0 °F 58.1 °F 97% 30.07 in 3.0 mi Calm Calm - N/A   Overcast
5:19 AM 59.0 °F 58.1 °F 97% 30.06 in 2.5 mi Calm Calm - N/A   Overcast
5:39 AM 59.2 °F 58.1 °F 96% 30.05 in 3.0 mi East 3.5 mph - N/A   Overcast
5:45 AM 59.0 °F 57.2 °F 94% 30.06 in 2.5 mi Calm Calm - N/A   Overcast
6:45 AM 60.8 °F 59.0 °F 94% 30.06 in 3.0 mi SE 4.6 mph - N/A   Overcast
7:50 AM 60.8 °F 59.0 °F 94% 30.05 in 3.0 mi ESE 3.5 mph - N/A   Overcast
8:50 AM 60.8 °F 60.8 °F 100% 30.05 in 1.0 mi SE 5.8 mph - N/A   Overcast
9:50 AM 62.6 °F 60.8 °F 94% 30.04 in 1.5 mi SE 5.8 mph - N/A   Overcast
10:50 AM 62.6 °F 60.8 °F 94% 30.02 in 7.0 mi ESE 6.9 mph - N/A   Overcast
11:50 AM 64.4 °F 62.6 °F 94% 29.98 in 10.0 mi ESE 9.2 mph 16.1 mph N/A   Overcast
12:50 PM 64.4 °F 62.6 °F 94% 29.95 in 10.0 mi SE 10.4 mph - N/A   Overcast
1:50 PM 64.4 °F 62.6 °F 94% 29.91 in 10.0 mi SE 6.9 mph - N/A   Overcast
2:50 PM 68.0 °F 64.4 °F 88% 29.87 in 10.0 mi ESE 5.8 mph - N/A   Overcast
3:50 PM 69.8 °F 64.4 °F 83% 29.85 in 10.0 mi SE 8.1 mph - N/A   Mostly Cloudy
4:50 PM 68.0 °F 64.4 °F 88% 29.82 in 10.0 mi ESE 12.7 mph 16.1 mph N/A   Mostly Cloudy
5:50 PM 66.2 °F 64.4 °F 94% 29.83 in 3.0 mi ESE 6.9 mph - N/A Rain Heavy Rain
6:49 PM 66.2 °F 64.4 °F 94% 29.85 in 10.0 mi West 12.7 mph - N/A Rain Light Rain
7:50 PM 64.4 °F 64.4 °F 100% 29.85 in 4.0 mi Calm Calm - N/A   Overcast
8:54 PM 62.6 °F 62.6 °F 100% 29.85 in 7.0 mi North 4.6 mph - N/A Rain Light Rain
9:50 PM 62.6 °F 60.8 °F 94% 29.87 in 7.0 mi WNW 6.9 mph - N/A Rain Light Rain
10:19 PM 62.6 °F 61.3 °F 96% 29.88 in 10.0 mi NW 3.5 mph - N/A   Overcast
10:39 PM 62.6 °F 61.3 °F 96% 29.88 in 10.0 mi West 3.5 mph - N/A   Overcast
10:59 PM 62.4 °F 61.2 °F 96% 29.89 in 10.0 mi West 4.6 mph - N/A   Overcast
11:19 PM 62.2 °F 61.2 °F 96% 29.88 in 7.0 mi WNW 3.5 mph - N/A   Mostly Cloudy
11:39 PM 62.1 °F 61.0 °F 96% 29.89 in 10.0 mi WNW 5.8 mph - N/A   Overcast
11:59 PM 61.7 °F 60.6 °F 96% 29.88 in 10.0 mi WNW 4.6 mph - N/A   Overcast